sat.trackr.live / text

‹ back to catalog

YAOGAN-24

NORAD 40310 · 2014-072A

PAYLOAD ACTIVE UNKNOWN

§ Identity

Operator
Country
PRC
Launch date
2014-11-20
Launch site
JSC
Launch vehicle
Mass (kg)
RCS (m²)
4.23

Purposes: earth_obs

External: N2YO · Heavens-Above · Gunter

§ Orbital elements

Epoch: 2026-05-25T05:44:58.599168Z

Period
97.55 min
Inclination
98.1456°
Eccentricity
0.0013506
Mean motion
14.76186827 rev/d
Perigee alt
631.9 km
Apogee alt
650.9 km
Semi-major
7,019.5 km
B*
3.4586e-5
RAAN
282.3875°
Arg perigee
342.8567°
Mean anomaly
17.2184°
Rev number
62,033

§ Raw data

YAOGAN-241 40310U 14072A   26145.23956712  .00000186  00000+0  34586-4 0  99992 40310  98.1456 282.3875 0013506 342.8567  17.2184 14.76186827620335

JSON: /api/v1/satellites/40310 · /tle

For live sub-satellite position, see the globe view (requires WebGL).

§ Visibility from observer

Set your observer location to see the next 7 days of passes ≥ 10°. The values pass through the URL so the page stays shareable.

No JS? Fill the form by hand. The geolocation button needs JavaScript.